User: anonymous   Login
Location: Newark
(20.5800°N, 87.1197°W)
Time: 22:02:27
(UTC+00:00)
Language:

N. Korean satellite - Orbit

View from above orbital plane
View from above orbital plane
View from above satellite
View from above satellite

Ground track
Ground track

The orbit data is extracted from the following two-line orbital elements,

1 39026U 12072A   19236.92482101 +.00000634 +00000-0 +25499-4 0  9996
2 39026 097.2128 237.9039 0036725 220.2601 139.5918 15.27933370371805
Epoch (UTC): 24 August 2019 22:11:44
Eccentricity: 0.0036725
inclination: 97.2128°
perigee height: 457 km
apogee height: 507 km
right ascension of ascending node: 237.9039°
argument of perigee: 220.2601°
revolutions per day: 15.27933370
mean anomaly at epoch: 139.5918°
orbit number at epoch: 37180

The dashed part of the orbit path shows where the satellite is in the earth's shadow,  

DLR